Regional Weather Roundup
Issued by NWS

Home | Current Version | Previous Version | Graphics & Text | Print | Product List | Glossary Off
Versions: 1 2 3 4 5 6 7 8 9 10 11 12 13 14 15 16 17 18 19 20 21 22 23 24 25 26 27 28 29 30 31 32 33 34 35 36 37 38 39 40 41 42 43 44 45 46 47 48 49 50

000
ASUS43 KMKX 060900
RWRWI

WISCONSIN REGIONAL WEATHER ROUNDUP
NATIONAL WEATHER SERVICE MILWAUKEE/SULLIVAN WI
300 AM CST SAT FEB 06 2016

NOTE: "FAIR" INDICATES FEW OR NO CLOUDS BELOW 12,000 FEET WITH NO
SIGNIFICANT WEATHER AND/OR OBSTRUCTIONS TO VISIBILITY.

WIZ001-002-006>008-014>016-023>028-061000-
NORTHWEST WISCONSIN

CITY           SKY/WX    TMP DP  RH WIND       PRES   REMARKS
SUPERIOR ARPT  CLOUDY    23  17  78 SW8       30.10S WCI  14
ASHLAND        CLOUDY    23  18  81 SW9       30.09F WCI  13
HAYWARD        CLOUDY    22  20  92 SW7       30.09F FOG     WCI  13
SIREN          CLOUDY    25  21  87 W7        30.12S WCI  17
CUMBERLAND     CLOUDY    23  21  93 SW7       30.11S FOG     WCI  15
RICE LAKE      CLOUDY    24  22  93 SW5       30.14S FOG     WCI  18
CHETEK         CLOUDY    23  22  96 SW6       30.14S FOG     WCI  15
LADYSMITH      CLOUDY    22  20  90 SW6       30.14R FOG     WCI  15
EAU CLAIRE     NOT AVBL
MENOMONIE      CLOUDY    25  21  83 SW3       30.16S
NEW RICHMOND   CLOUDY    25  22  88 SW5       30.14S FOG     WCI  19
OSCEOLA        CLOUDY    26  23  89 SW6       30.16F WCI  19
$$

WIZ003>005-009-010-017-018-061000-
NORTH CENTRAL WISCONSIN

CITY           SKY/WX    TMP DP  RH WIND       PRES   REMARKS
MANITOWISH WTR CLOUDY    19  19 100 SW9       30.05F FOG     WCI   9
ARBOR VITAE    CLOUDY    22  19  89 W9        30.06S FOG     WCI  11
WOODRUFF       CLOUDY    22  19  89 W9        30.06S FOG     WCI  11
RHINELANDER    CLOUDY    20  15  81 SW8       30.07S WCI  10
EAGLE RIVER    CLOUDY    20  16  83 W14       30.05F WCI   7
LAND O LAKES   CLOUDY    21  19  90 W3        30.05S FOG
PHILLIPS       CLOUDY    19  18  95 SW7       30.09S FOG     WCI  10
TOMAHAWK       CLOUDY    20  16  83 W6        30.11R WCI  13
MEDFORD        CLOUDY    21  20  96 SW8       30.11S FOG     WCI  11
MERRILL        CLOUDY    21  17  85 W9        30.12S WCI  11
$$

WIZ029-030-035-036-043>047-061000-
CENTRAL WISCONSIN

CITY           SKY/WX    TMP DP  RH WIND       PRES   REMARKS
WAUSAU         CLOUDY    23  18  81 SW10      30.11F WCI  12
MOSINEE        FLURRIES  23  21  93 SW10      30.14S WCI  12
MARSHFIELD     CLOUDY    23  18  81 W12       30.13S WCI  12
STEVENS POINT  LGT SNOW  21  18  85 SW12      30.16S WCI  10
WAUPACA        FLURRIES  27  19  72 SW7       30.18F WCI  19
WAUTOMA        NOT AVBL
WISC RAPIDS    FLURRIES  24  18  77 SW8       30.17F WCI  15
CAMP DOUGLAS   CLOUDY    27  27 100 SW10      30.17F WCI  17
$$

WIZ011>013-019>022-031-037>040-048>050-061000-
NORTHEAST WISCONSIN

CITY           SKY/WX    TMP DP  RH WIND       PRES   REMARKS
ANTIGO         FLURRIES  20  17  88 SW12      30.10S WCI   9
SHAWANO        FLURRIES  27  19  73 SW8       30.16F WCI  19
OCONTO         CLOUDY    25  19  80 SW10G17   30.16F WCI  15
STURGEON BAY   CLOUDY    25  14  63 SW16G23   30.17F WCI  12
GREEN BAY      CLOUDY    25  18  74 SW10      30.18F WCI  15
MANITOWOC      NOT AVBL
APPLETON       CLOUDY    25  18  74 SW12      30.16F WCI  14
CLINTONVILLE   FLURRIES  27  19  74 SW9       30.16F WCI  17
OSHKOSH        CLOUDY    25  18  74 SW8       30.19F WCI  16
$$

WIZ032>034-041-042-053>061-061000-
SOUTHWEST WISCONSIN

CITY           SKY/WX    TMP DP  RH WIND       PRES   REMARKS
LA CROSSE      CLOUDY    26  21  81 S6        30.20S WCI  19
SPARTA         CLOUDY    26  23  86 SW3       30.20S
VIROQUA        CLOUDY    25  22  87 SW13      30.17F WCI  13
BOSCOBEL       CLOUDY    28  21  75 SW5       30.23F WCI  23
PRAIRIE DU CHI CLOUDY    28  20  70 S3        30.23F
PLATTEVILLE    CLOUDY    27  24  89 SW7       30.22F WCI  19
$$

WIZ056-057-062-063-064-067-068-061000-
SOUTH CENTRAL WISCONSIN

CITY           SKY/WX    TMP DP  RH WIND       PRES   REMARKS
REEDSBURG      CLOUDY    26  19  74 SW7       30.20F WCI  18
BARABOO/DELLS  CLOUDY    26  19  74 SW10      30.19F WCI  16
LONE ROCK      CLOUDY    27  19  72 CALM      30.23F
MINERAL POINT  CLOUDY    28  25  86 SW7       30.21F WCI  21
MADISON        CLOUDY    27  19  72 VRB5      30.22F WCI  22
MIDDLETON      CLOUDY    28  21  74 SW6       30.22F WCI  22
WATERTOWN      CLOUDY    27  23  84 SW8       30.23S WCI  19
MONROE         CLOUDY    28  23  80 SW9       30.22F WCI  20
JANESVILLE     CLOUDY    30  27  86 SW7       30.24F WCI  23
$$

WIZ051-052-058>065-066-070>072-061000-
SOUTHEAST WISCONSIN

CITY           SKY/WX    TMP DP  RH WIND       PRES   REMARKS
MILWAUKEE      CLOUDY    29  20  69 SW7       30.24F WCI  22
WAUKESHA       CLOUDY    27  21  80 SW6       30.24F WCI  20
MILWAUKEE/TIMM CLOUDY    28  19  69 SW9       30.24F WCI  20
RACINE         CLOUDY    28  21  75 SW8       30.26F WCI  20
BURLINGTON     CLOUDY    26  21  83 SW7       30.25F WCI  18
KENOSHA        CLOUDY    27  22  81 W9        30.26S WCI  18
FOND DU LAC    CLOUDY    26  19  74 SW8       30.20F WCI  18
SHEBOYGAN      CLOUDY    27  18  69 SW12      30.21S WCI  17
WEST BEND      CLOUDY    28  19  69 SW8       30.21F WCI  20
JUNEAU         CLOUDY    26  20  80 SW10      30.23S WCI  16
$$

LSZ147-162-061000-
LAKE SUPERIOR

STATION/POSITION TIME  TEMP    WIND        PRES    WAVE
                       AIR SEA DIR/SP/G            HT/PER
                 (UTC) (F)     (DEG/KT/KT) (MB)    (FT/S)
DEVILS ISLAND    0800   28     240/ 21/ 26 1018.9S
SAXON HARBOR     0840   25                 1018.6S
$$

LMZ867-665-643>646-061000-
LAKE MICHIGAN

STATION/POSITION TIME  TEMP    WIND        PRES    WAVE
                       AIR SEA DIR/SP/G            HT/PER
                 (UTC) (F)     (DEG/KT/KT) (MB)    (FT/S)
CHAMBERS ISLAND  0800   23     200/  8/ 13 1021.0S
ALGOMA LAKESHORE 0741          260/ 10/ 16   N/A
KEWAUNEE LAKESHO 0800   26     260/ 12/ 16 1021.4F
SHEBOYGAN LAKESH 0800   28     230/ 13/ 15 1024.2F
PORT WASHINGTON  0800   29     250/  8/ 14 1024.7F
MILWAUKEE LAKESH 0810   30     240/  8/ 10   N/A
KENOSHA   LAKESH 0800   28     240/  8/ 11 1024.7F
$$

TC  - TEMPERATURE IN CELSIUS
VSB - VISIBILITY IN STATUTE MILES
WCI - WIND CHILL INDEX
HX  - HEAT INDEX




USA.gov is the U.S. government's official web portal to all federal, state and local government web resources and services.